1484132400.07,21739,5.31,72480.3,-12.45,-46.97,-47.37,0,*67
1484132401.34,21740,5.31,72484.0,-12.45,-46.75,-47.23,0,*60
1484132402.63,21741,5.31,72482.0,-12.45,-47.23,-47.79,0,*6C
1484132403.92,21742,5.31,72484.0,-12.49,-47.03,-47.45,0,*6E
1484132405.17,21743,5.31,72486.8,-12.51,-46.83,-47.45,0,*6F
1484132406.44,21744,5.31,72482.0,-12.49,-46.69,-47.09,0,*6D
1484132407.66,21745,5.31,72478.3,-12.51,-46.83,-47.31,0,*6A
1484132408.93,21746,5.31,72480.3,-12.51,-47.23,-47.71,0,*66
1484132410.16,21747,5.31,72482.5,-12.51,-47.65,-47.93,0,*69
1484132411.42,21748,5.31,72482.8,-12.53,-47.71,-48.41,0,*61
1484132412.64,21749,5.31,72480.5,-12.51,-47.09,-47.65,0,*64
1484132413.89,21750,5.31,72480.5,-12.55,-47.31,-47.71,0,*66
1484132415.13,21751,5.31,72480.8,-12.55,-47.31,-47.71,0,*67
1484132416.38,21752,5.31,72482.5,-12.55,-47.31,-47.71,0,*64
1484132417.6,21753,5.31,72482.8,-12.55,-47.09,-47.57,0,*6A
1484132418.85,21754,5.31,72480.3,-12.55,-46.89,-47.31,0,*64
1484132420.1,21755,5.31,72484.0,-12.59,-46.97,-47.45,0,*65
1484132421.35,21756,5.31,72486.5,-12.59,-46.97,-47.45,0,*66
1484132422.6,21757,5.31,72480.0,-12.57,-46.97,-47.51,0,*6C
1484132423.84,21758,5.31,72480.5,-12.59,-47.23,-47.65,0,*64
1484132425.11,21759,5.31,72486.3,-12.57,-46.89,-47.51,0,*6D
1484132426.33,21760,5.31,72480.3,-12.59,-46.83,-47.17,0,*61
1484132427.58,21761,5.31,72482.3,-12.59,-46.97,-47.37,0,*67
1484132428.85,21762,5.31,72486.3,-12.59,-47.03,-47.45,0,*6D
1484132430.11,21763,5.31,72482.0,-12.63,-47.45,-47.85,0,*6B
1484132431.37,21764,5.31,72480.3,-12.65,-47.23,-47.65,0,*64
1484132432.62,21765,5.31,72482.0,-12.63,-47.37,-47.65,0,*66
1484132433.89,21766,5.31,72482.0,-12.65,-47.45,-47.85,0,*68
1484132435.18,21767,5.31,72482.5,-12.65,-47.23,-47.71,0,*62
1484132436.42,21768,5.31,72480.0,-12.65,-47.09,-47.65,0,*60
1484132437.66,21769,5.31,72480.8,-12.65,-46.75,-47.31,0,*6A
1484132438.93,21770,5.31,72482.5,-12.65,-46.89,-47.31,0,*61
1484132440.21,21771,5.31,72476.5,-12.65,-46.83,-47.45,0,*69
1484132441.43,21772,5.31,72482.8,-12.67,-47.65,-48.07,0,*68
1484132442.65,21773,5.31,72476.0,-12.67,-47.31,-47.85,0,*6D
1484132443.9,21774,5.31,72478.0,-12.67,-47.09,-47.37,0,*68
1484132445.12,21775,5.31,72482.3,-12.67,-47.31,-47.65,0,*65
1484132446.37,21776,5.31,72484.3,-12.67,-47.79,-48.21,0,*65
1484132447.58,21777,5.31,72478.0,-12.67,-47.09,-47.65,0,*6C
1484132448.83,21778,5.31,72480.0,-12.67,-46.97,-47.37,0,*62
1484132450.05,21779,5.31,72486.5,-12.67,-47.09,-47.57,0,*63
1484132451.26,21780,5.31,72482.3,-12.69,-47.09,-47.57,0,*6B
1484132452.52,21781,5.31,72482.3,-12.73,-47.03,-47.45,0,*68
1484132453.74,21782,5.31,72480.5,-12.73,-46.97,-47.31,0,*64
1484132454.99,21783,5.31,72482.0,-12.73,-46.69,-47.03,0,*65
1484132456.26,21784,5.31,72478.8,-12.69,-46.89,-47.37,0,*60
1484132457.53,21785,5.31,72480.3,-12.73,-47.03,-47.45,0,*6C
1484132458.79,21786,5.31,72482.0,-12.73,-47.03,-47.45,0,*6F
1484132460.02,21787,5.31,72480.5,-12.73,-46.69,-46.97,0,*6D
1484132461.26,21788,5.31,72480.8,-12.73,-46.75,-47.23,0,*61
1484132462.5,21789,5.31,72478.3,-12.73,-46.97,-47.23,0,*6C
1484132463.77,21790,5.31,72482.0,-12.73,-46.89,-47.37,0,*6E
1484132465.06,21791,5.31,72480.8,-12.75,-46.89,-47.23,0,*6C
1484132466.36,21792,5.31,72480.3,-12.75,-46.89,-47.37,0,*6A
1484132467.61,21793,5.31,72482.5,-12.75,-47.03,-47.57,0,*6E
1484132468.85,21794,5.31,72480.5,-12.75,-47.17,-47.65,0,*6D
1484132470.11,21795,5.31,72480.8,-12.77,-47.23,-47.71,0,*6C
1484132471.32,21796,5.31,72480.8,-12.77,-46.97,-47.31,0,*65
1484132472.54,21797,5.31,72482.8,-12.77,-46.83,-47.31,0,*61
1484132473.81,21798,5.31,72484.3,-12.77,-47.03,-47.45,0,*64
1484132475.07,21799,5.31,72484.5,-12.81,-47.23,-47.71,0,*69
1484132476.32,21800,5.31,72480.3,-12.79,-47.31,-47.85,0,*69
1484132477.54,21801,5.31,72482.0,-12.81,-47.31,-47.85,0,*6F
1484132478.81,21802,5.31,72478.5,-12.81,-47.03,-47.23,0,*61
1484132480.04,21803,5.31,72480.0,-12.81,-47.03,-47.31,0,*63
1484132481.29,21804,5.31,72478.5,-12.81,-47.09,-47.71,0,*6A
1484132482.51,21805,5.31,72484.8,-12.81,-46.97,-47.31,0,*69
1484132483.74,21806,5.31,72480.0,-12.85,-47.17,-47.71,0,*63
1484132485.01,21807,5.31,72482.5,-12.87,-47.37,-47.85,0,*69
1484132486.28,21808,5.31,72480.0,-12.87,-47.09,-47.37,0,*62
1484132487.52,21809,5.31,72478.8,-12.87,-47.17,-47.57,0,*6A
1484132488.78,21810,5.31,72480.3,-12.87,-47.23,-47.65,0,*64
1484132490.04,21811,5.31,72482.0,-12.87,-47.23,-47.65,0,*65
1484132491.31,21812,5.31,72476.8,-12.87,-47.23,-47.65,0,*66
1484132492.6,21813,5.31,72482.0,-12.87,-47.23,-47.45,0,*65
1484132493.87,21814,5.31,72478.0,-12.87,-47.09,-47.37,0,*6F
1484132495.11,21815,5.31,72486.3,-12.89,-47.23,-47.57,0,*6E
1484132496.38,21816,5.31,72482.8,-12.91,-47.45,-47.85,0,*6B
1484132497.64,21817,5.31,72478.3,-12.91,-47.51,-47.93,0,*68
1484132498.88,21818,5.31,72480.5,-12.91,-47.17,-47.51,0,*6B
1484132500.17,21819,5.31,72478.8,-12.91,-47.03,-47.23,0,*6A
1484132501.45,21820,5.31,72478.8,-12.91,-46.97,-47.23,0,*6C
1484132502.69,21821,5.31,72478.5,-12.91,-46.97,-47.31,0,*6E
1484132503.93,21822,5.31,72476.8,-12.91,-47.17,-47.51,0,*62
1484132505.21,21823,5.31,72476.0,-12.95,-47.31,-47.71,0,*61
1484132506.51,21824,5.31,72482.8,-12.95,-47.03,-47.37,0,*65
1484132507.78,21825,5.31,72480.8,-12.95,-46.89,-47.31,0,*61
1484132509.05,21826,5.31,72480.3,-12.95,-46.69,-47.09,0,*67
1484132510.33,21827,5.31,72482.3,-12.95,-46.41,-46.83,0,*6F
1484132511.57,21828,5.31,72480.8,-12.97,-46.41,-46.75,0,*6B
1484132512.86,21829,5.31,72480.3,-12.95,-46.41,-46.89,0,*6B
1484132514.1,21830,5.31,72482.0,-12.91,-46.75,-47.17,0,*66
1484132515.35,21831,5.31,72478.8,-12.95,-46.83,-47.09,0,*65
1484132516.65,21832,5.31,72476.5,-12.95,-46.89,-47.23,0,*64
1484132517.93,21833,5.31,72476.3,-12.95,-47.31,-47.71,0,*60
1484132519.2,21834,5.31,72476.5,-12.97,-47.23,-47.71,0,*66
1484132520.44,21835,5.31,72480.8,-12.97,-47.09,-47.37,0,*6D
1484132521.68,21836,5.31,72480.8,-12.97,-47.03,-47.51,0,*64
1484132522.93,21837,5.31,72480.8,-12.97,-46.83,-47.23,0,*69
1484132524.2,21838,5.31,72480.5,-12.99,-46.69,-46.97,0,*62
1484132525.43,21839,5.31,72478.5,-12.99,-46.55,-47.09,0,*6A
1484132526.67,21840,5.31,72476.0,-12.99,-46.75,-47.17,0,*69
1484132527.95,21841,5.31,72480.3,-12.99,-46.89,-47.31,0,*6F
1484132529.21,21842,5.31,72480.8,-12.99,-47.17,-47.45,0,*69
1484132530.43,21843,5.31,72476.0,-13.03,-47.09,-47.31,0,*66
1484132531.71,21844,5.31,72478.3,-13.01,-46.89,-47.31,0,*6A
1484132532.95,21845,5.31,72476.0,-13.03,-46.97,-47.37,0,*60
1484132534.22,21846,5.31,72474.0,-13.01,-46.97,-47.37,0,*61
1484132535.49,21847,5.31,72474.8,-13.01,-46.89,-47.09,0,*62
1484132536.76,21848,5.31,72478.8,-13.01,-46.89,-47.31,0,*66
1484132538.01,21849,5.31,72474.5,-13.03,-46.97,-47.37,0,*6C
1484132539.25,21850,5.31,72474.5,-13.03,-47.09,-47.37,0,*62
1484132540.47,21851,5.31,72476.3,-13.03,-47.31,-47.65,0,*6F
1484132541.74,21852,5.31,72474.3,-13.03,-47.37,-47.79,0,*67
1484132543.01,21853,5.31,72472.3,-13.07,-47.45,-47.71,0,*6F
1484132544.27,21854,5.31,72474.5,-13.07,-47.37,-47.71,0,*6D
1484132545.52,21855,5.31,72470.8,-13.11,-47.51,-47.79,0,*63
1484132546.73,21856,5.31,72472.3,-13.07,-47.17,-47.65,0,*68
1484132547.95,21857,5.31,72472.5,-13.11,-47.31,-47.57,0,*6B
1484132549.17,21858,5.31,72474.3,-13.11,-47.09,-47.51,0,*69
1484132550.41,21859,5.31,72472.5,-13.11,-47.51,-47.79,0,*6F
1484132551.63,21860,5.31,72470.8,-13.15,-47.31,-47.65,0,*6A
1484132552.87,21861,5.31,72470.0,-13.13,-47.09,-47.51,0,*61
1484132554.12,21862,5.31,72474.3,-13.15,-47.57,-47.79,0,*65
1484132555.36,21863,5.31,72468.5,-13.13,-47.17,-47.65,0,*6B
1484132556.6,21864,5.31,72472.8,-13.15,-46.97,-47.37,0,*64
1484132557.81,21865,5.31,72472.3,-13.15,-47.17,-47.57,0,*6A
1484132559.02,21866,5.31,72474.3,-13.15,-47.17,-47.57,0,*69
1484132560.24,21867,5.31,72474.3,-13.15,-47.31,-47.57,0,*6C
1484132561.49,21868,5.31,72472.0,-13.15,-46.97,-47.37,0,*68
1484132562.73,21869,5.31,72472.0,-13.15,-47.37,-47.65,0,*65
1484132563.97,21870,5.31,72478.0,-13.19,-47.37,-47.65,0,*61
1484132565.22,21871,5.31,72474.0,-13.19,-46.97,-47.45,0,*69
1484132566.47,21872,5.31,72472.3,-13.19,-46.97,-47.23,0,*6A
1484132567.68,21873,5.31,72478.0,-13.19,-46.75,-47.17,0,*60
1484132568.93,21874,5.31,72474.8,-13.19,-47.17,-47.45,0,*65
1484132570.19,21875,5.31,72476.0,-13.19,-47.03,-47.45,0,*61
1484132571.44,21876,5.31,72472.3,-13.19,-46.97,-47.45,0,*6E
1484132572.69,21877,5.31,72474.0,-13.19,-46.97,-47.23,0,*6F
1484132573.94,21878,5.31,72472.5,-13.19,-46.83,-47.37,0,*60
1484132575.16,21879,5.31,72474.8,-13.23,-47.09,-47.51,0,*6B
1484132576.4,21880,5.31,72472.8,-13.23,-47.03,-47.31,0,*61
1484132577.69,21881,5.31,72472.8,-13.21,-46.41,-46.89,0,*67
1484132578.95,21882,5.31,72474.8,-13.23,-46.69,-47.03,0,*6F
1484132580.22,21883,5.31,72472.5,-13.23,-46.89,-47.23,0,*62
1484132581.49,21884,5.31,72472.5,-13.21,-46.83,-47.23,0,*6D
1484132582.77,21885,5.31,72472.8,-13.23,-46.89,-47.23,0,*64
1484132584.01,21886,5.31,72474.5,-13.23,-46.89,-47.31,0,*64
1484132585.23,21887,5.31,72476.8,-13.23,-46.83,-47.09,0,*64
1484132586.5,21888,5.31,72474.3,-13.23,-46.49,-47.03,0,*67
1484132587.78,21889,5.31,72476.0,-13.21,-46.49,-47.03,0,*64
1484132589.04,21890,5.31,72474.3,-13.21,-46.69,-47.09,0,*64
1484132590.29,21891,5.31,72472.0,-13.23,-46.83,-47.23,0,*6B
1484132591.54,21892,5.31,72474.3,-13.23,-46.83,-47.23,0,*68
1484132592.78,21893,5.31,72472.3,-13.23,-46.61,-47.09,0,*6D
1484132594.04,21894,5.31,72474.3,-13.25,-46.41,-46.75,0,*64
1484132595.33,21895,5.31,72472.3,-13.25,-46.41,-46.89,0,*66
1484132596.59,21896,5.31,72472.8,-13.25,-46.69,-47.09,0,*66
1484132597.85,21897,5.31,72474.3,-13.23,-46.69,-47.03,0,*6B
1484132599.09,21898,5.31,72472.3,-13.25,-46.55,-46.97,0,*61
1484132600.38,21899,5.31,72478.0,-13.25,-46.41,-46.69,0,*64
1484132601.62,21900,5.31,72476.8,-13.25,-46.75,-47.09,0,*65
1484132602.86,21901,5.31,72478.0,-13.23,-46.49,-47.09,0,*6D
1484132604.11,21902,5.31,72476.5,-13.23,-46.35,-46.49,0,*60
1484132605.4,21903,5.31,72474.8,-13.25,-46.27,-46.69,0,*66
1484132606.69,21904,5.31,72476.0,-13.25,-46.41,-46.89,0,*6F
1484132607.93,21905,5.31,72472.5,-13.25,-46.55,-46.97,0,*64
1484132609.19,21906,5.31,72472.5,-13.23,-46.41,-46.89,0,*6B
1484132610.46,21907,5.31,72476.0,-13.25,-46.55,-46.89,0,*69
1484132611.73,21908,5.31,72474.8,-13.25,-46.55,-46.89,0,*66
1484132613.02,21909,5.31,72474.5,-13.25,-46.49,-46.89,0,*6A
1484132614.32,21910,5.31,72474.0,-13.25,-46.49,-46.69,0,*6C
1484132615.6,21911,5.31,72476.5,-13.25,-46.41,-46.69,0,*65
1484132616.89,21912,5.31,72476.5,-13.25,-46.41,-46.69,0,*66
1484132618.17,21913,5.31,72474.0,-13.25,-46.41,-46.69,0,*67
1484132619.45,21914,5.31,72474.3,-13.25,-46.27,-46.55,0,*6F
1484132620.74,21915,5.31,72474.5,-13.25,-46.07,-46.41,0,*69
1484132622.04,21916,5.31,72476.0,-13.25,-46.27,-46.49,0,*60
1484132623.26,21917,5.31,72472.5,-13.23,-46.01,-46.35,0,*68
1484132624.5,21918,5.31,72472.5,-13.23,-46.21,-46.61,0,*64
1484132625.72,21919,5.31,72474.3,-13.23,-46.01,-46.35,0,*66
1484132626.96,21920,5.31,72474.3,-13.23,-46.41,-46.83,0,*65
1484132628.23,21921,5.31,72478.8,-13.23,-46.41,-46.69,0,*60
1484132629.47,21922,5.31,72476.8,-13.23,-46.21,-46.41,0,*6F
1484132630.74,21923,5.31,72472.8,-13.23,-46.15,-46.41,0,*69
1484132631.98,21924,5.38,72478.3,-13.23,-46.35,-46.61,0,*6E
1484132633.25,21925,5.31,72474.0,-13.21,-46.35,-46.69,0,*65
1484132634.49,21926,5.31,72474.3,-13.23,-46.35,-46.61,0,*6C
1484132635.74,21927,5.31,72474.8,-13.23,-46.35,-46.61,0,*6D
1484132636.95,21928,5.31,72478.0,-13.23,-45.95,-46.21,0,*6F
1484132638.17,21929,5.31,72472.8,-13.23,-45.95,-46.21,0,*6E
1484132639.44,21930,5.31,72474.5,-13.23,-45.81,-46.15,0,*64
1484132640.68,21931,5.31,72472.3,-13.21,-45.61,-45.95,0,*62
1484132641.93,21932,5.31,72474.5,-13.21,-45.95,-46.01,0,*64
1484132643.22,21933,5.31,72472.0,-13.21,-46.15,-46.41,0,*6A
1484132644.46,21934,5.31,72470.0,-13.23,-46.35,-46.69,0,*67
1484132645.76,21935,5.31,72474.8,-13.21,-46.49,-46.69,0,*6F
1484132647.03,21936,5.31,72474.5,-13.21,-46.15,-46.35,0,*6C
1484132648.27,21937,5.31,72472.3,-13.23,-46.35,-46.61,0,*6C
1484132649.56,21938,5.31,72468.0,-13.21,-46.41,-46.89,0,*64
1484132650.83,21939,5.31,72472.8,-13.21,-46.35,-46.49,0,*6A
1484132652.1,21940,5.31,72470.5,-13.21,-46.41,-46.83,0,*61
1484132653.34,21941,5.31,72470.8,-13.23,-46.41,-46.83,0,*62
1484132654.6,21942,5.31,72472.5,-13.23,-46.41,-46.89,0,*6B
1484132655.87,21943,5.31,72470.0,-13.23,-46.41,-46.69,0,*64
1484132657.15,21944,5.31,72470.3,-13.21,-46.41,-46.61,0,*69
1484132658.42,21945,5.31,72474.8,-13.21,-46.21,-46.49,0,*64
1484132659.67,21946,5.31,72472.0,-13.23,-46.35,-46.49,0,*60
1484132660.97,21947,5.38,72472.0,-13.21,-46.15,-46.41,0,*69
1484132662.26,21948,5.31,72470.3,-13.21,-46.15,-46.49,0,*6E
1484132663.53,21949,5.31,72468.5,-13.21,-46.35,-46.41,0,*65
1484132664.78,21950,5.31,72470.5,-13.21,-46.01,-46.21,0,*6C
1484132666.05,21951,5.31,72468.3,-13.21,-46.15,-46.35,0,*6D
1484132667.3,21952,5.31,72470.5,-13.21,-46.01,-46.35,0,*6B
1484132668.52,21953,5.38,72472.5,-13.23,-45.95,-46.01,0,*61
1484132669.78,21954,5.31,72472.0,-13.19,-45.73,-46.07,0,*61
1484132671.03,21955,5.31,72472.5,-13.19,-46.07,-46.35,0,*61
1484132672.3,21956,5.31,72470.3,-13.19,-45.73,-46.15,0,*60
1484132673.56,21957,5.31,72470.8,-13.19,-45.73,-46.07,0,*62
1484132674.8,21958,5.38,72474.3,-13.19,-45.73,-45.87,0,*66
1484132676.03,21959,5.38,72472.0,-13.15,-45.73,-45.95,0,*68
1484132677.3,21960,5.31,72468.8,-13.19,-45.73,-46.07,0,*66
1484132678.54,21961,5.31,72468.3,-13.15,-45.67,-46.07,0,*6E
1484132679.77,21962,5.31,72470.5,-13.15,-45.61,-46.01,0,*6D
1484132681.01,21963,5.31,72474.5,-13.15,-45.61,-45.81,0,*67
1484132682.27,21964,5.31,72466.8,-13.15,-45.27,-45.61,0,*6C
1484132683.51,21965,5.31,72468.8,-13.15,-45.21,-45.47,0,*6F
1484132684.72,21966,5.31,72472.5,-13.15,-45.41,-45.67,0,*68
1484132685.94,21967,5.31,72468.8,-13.15,-45.61,-45.87,0,*65
1484132687.16,21968,5.31,72468.3,-13.15,-45.67,-45.87,0,*6C
1484132688.45,21969,5.31,72468.5,-13.13,-45.47,-45.81,0,*6F
1484132689.69,21970,5.31,72470.5,-13.15,-45.21,-45.47,0,*6B
1484132690.97,21971,5.31,72468.3,-13.13,-44.99,-45.27,0,*68
1484132692.2,21972,5.31,72466.8,-13.13,-45.41,-45.67,0,*6B
1484132693.44,21973,5.31,72470.3,-13.13,-45.41,-45.67,0,*6A
1484132694.66,21974,5.31,72470.3,-13.11,-44.99,-45.41,0,*6F
1484132695.89,21975,5.31,72470.5,-13.11,-44.99,-45.21,0,*68
1484132697.11,21976,5.31,72470.3,-13.11,-45.13,-45.41,0,*6E
1484132698.38,21977,5.31,72468.5,-13.07,-44.93,-45.27,0,*61
1484132699.64,21978,5.31,72468.8,-13.07,-45.07,-45.47,0,*64
1484132700.91,21979,5.31,72470.5,-13.07,-44.93,-45.27,0,*6F
1484132702.15,21980,5.31,72472.5,-13.07,-44.61,-44.73,0,*64
1484132703.36,21981,5.38,72474.8,-13.03,-44.41,-44.79,0,*69
1484132704.59,21982,5.31,72468.0,-13.03,-44.87,-45.21,0,*6C
1484132705.84,21983,5.31,72472.0,-13.01,-44.87,-45.21,0,*6F
1484132707.07,21984,5.38,72474.0,-13.03,-44.99,-45.21,0,*65
1484132708.34,21985,5.31,72470.8,-13.01,-44.79,-45.07,0,*6C
1484132709.59,21986,5.31,72472.5,-13.01,-44.79,-44.87,0,*66
1484132710.86,21987,5.31,72474.3,-12.99,-44.67,-44.87,0,*68
1484132712.1,21988,5.31,72470.8,-12.97,-44.53,-44.73,0,*65
1484132713.34,21989,5.31,72474.3,-12.99,-44.53,-44.53,0,*68
1484132714.59,21990,5.38,72472.3,-12.97,-44.73,-44.79,0,*64
1484132715.83,21991,5.31,72472.5,-12.97,-44.47,-44.61,0,*6B
1484132717.12,21992,5.31,72468.3,-12.95,-44.13,-44.33,0,*6C
1484132718.39,21993,5.31,72470.3,-12.95,-44.07,-44.33,0,*68
1484132719.66,21994,5.38,72472.0,-12.91,-43.87,-44.21,0,*67
1484132720.93,21995,5.31,72472.0,-12.91,-44.67,-44.87,0,*63
1484132722.22,21996,5.31,72470.8,-12.91,-44.67,-44.93,0,*65
1484132723.51,21997,5.31,72470.0,-12.91,-44.67,-44.73,0,*6A
1484132724.75,21998,5.31,72474.3,-12.89,-44.61,-44.67,0,*6F
1484132725.99,21999,5.31,72472.8,-12.89,-44.47,-44.87,0,*64
1484132727.28,22000,5.31,72470.3,-12.91,-44.67,-44.93,0,*60
1484132728.52,22001,5.31,72472.0,-12.89,-44.67,-44.99,0,*62
1484132729.73,22002,5.31,72472.8,-12.89,-44.61,-44.61,0,*60
1484132731.01,22003,5.38,72474.3,-12.87,-44.33,-44.47,0,*6C
1484132732.28,22004,5.31,72472.5,-12.87,-44.33,-44.61,0,*6F
1484132733.54,22005,5.31,72468.5,-12.87,-44.47,-44.61,0,*6D
1484132734.78,22006,5.38,72472.8,-12.85,-44.33,-44.53,0,*6E
1484132736.01,22007,5.38,72472.5,-12.85,-44.07,-44.13,0,*6C
1484132737.25,22008,5.31,72474.5,-12.81,-44.01,-44.07,0,*64
1484132738.5,22009,5.38,72476.5,-12.81,-44.53,-44.73,0,*61
1484132739.74,22010,5.31,72472.8,-12.79,-44.53,-44.87,0,*65
1484132741.02,22011,5.31,72468.0,-12.79,-44.33,-44.47,0,*6E
1484132742.29,22012,5.31,72472.3,-12.79,-44.27,-44.47,0,*68
1484132743.58,22013,5.31,72468.8,-12.79,-44.21,-44.47,0,*6F
1484132744.84,22014,5.38,72472.0,-12.79,-44.33,-44.53,0,*6E
1484132746.08,22015,5.31,72468.8,-12.77,-44.53,-44.73,0,*65
1484132747.29,22016,5.31,72470.3,-12.77,-44.53,-44.87,0,*6D
1484132748.57,22017,5.31,72470.8,-12.75,-44.47,-44.67,0,*65
1484132749.83,22018,5.31,72468.8,-12.75,-44.61,-44.67,0,*6E
1484132751.11,22019,5.31,72468.3,-12.75,-44.47,-44.67,0,*6B
1484132752.39,22020,5.31,72472.5,-12.75,-44.13,-44.13,0,*63
1484132753.65,22021,5.31,72470.5,-12.75,-44.47,-44.61,0,*66
1484132754.9,22022,5.31,72470.3,-12.75,-44.61,-44.87,0,*69
1484132756.16,22023,5.31,72468.8,-12.75,-44.67,-44.99,0,*61
1484132757.39,22024,5.38,72474.0,-12.73,-44.47,-44.61,0,*65
1484132758.6,22025,5.31,72470.8,-12.73,-44.61,-44.79,0,*69
1484132759.84,22026,5.31,72470.5,-12.73,-44.47,-44.87,0,*6F
1484132761.05,22027,5.31,72470.3,-12.69,-44.41,-44.61,0,*6B
1484132762.29,22028,5.38,72472.0,-12.69,-44.07,-44.13,0,*63
1484132763.49,22029,5.31,72470.3,-12.73,-44.41,-44.61,0,*6E
1484132764.76,22030,5.38,72472.8,-12.69,-44.21,-44.33,0,*6C
1484132766.0,22031,5.31,72472.0,-12.69,-44.07,-44.21,0,*6A
1484132767.22,22032,5.38,72474.3,-12.67,-44.53,-44.79,0,*6B
1484132768.46,22033,5.31,72468.5,-12.67,-44.13,-44.27,0,*65
1484132769.74,22034,5.31,72470.0,-12.67,-44.21,-44.33,0,*66
1484132771.01,22035,5.38,72474.0,-12.67,-44.21,-44.33,0,*67
1484132772.27,22036,5.31,72470.8,-12.67,-44.01,-44.13,0,*64
1484132773.56,22037,5.38,72474.3,-12.65,-44.33,-44.67,0,*65
1484132774.82,22038,5.38,72472.3,-12.65,-44.33,-44.53,0,*6D
1484132776.06,22039,5.31,72472.5,-12.65,-44.27,-44.53,0,*69
1484132777.32,22040,5.31,72470.0,-12.65,-44.47,-44.53,0,*61
1484132778.62,22041,5.31,72468.0,-12.65,-44.73,-44.93,0,*6B
1484132779.91,22042,5.38,72472.5,-12.65,-44.33,-44.47,0,*65
1484132781.19,22043,5.31,72470.5,-12.65,-44.33,-44.67,0,*66
1484132782.44,22044,5.38,72472.0,-12.63,-44.01,-44.07,0,*60
1484132783.68,22045,5.31,72470.5,-12.59,-44.21,-44.41,0,*68
1484132784.93,22046,5.31,72470.8,-12.63,-44.21,-44.41,0,*62
1484132786.18,22047,5.31,72472.3,-12.59,-44.47,-44.79,0,*61
1484132787.42,22048,5.31,72472.0,-12.59,-44.47,-44.79,0,*6E
1484132788.68,22049,5.31,72470.5,-12.57,-44.33,-44.53,0,*6A
1484132789.93,22050,5.31,72468.3,-12.59,-44.21,-44.61,0,*6E
1484132791.2,22051,5.38,72474.3,-12.59,-44.21,-44.47,0,*6B
1484132792.44,22052,5.38,72472.3,-12.59,-44.27,-44.67,0,*6C
1484132793.66,22053,5.31,72468.8,-12.59,-44.41,-44.61,0,*6B
1484132794.91,22054,5.31,72470.8,-12.59,-44.21,-44.41,0,*68
1484132796.18,22055,5.31,72470.3,-12.57,-44.21,-44.61,0,*65
1484132797.45,22056,5.38,72472.8,-12.57,-44.21,-44.41,0,*64
1484132798.7,22057,5.31,72472.8,-12.57,-44.33,-44.53,0,*65
1484132799.97,22058,5.31,72470.3,-12.57,-44.33,-44.41,0,*69
1484132801.23,22059,5.38,72472.3,-12.53,-44.33,-44.53,0,*6F
1484132802.48,22060,5.31,72470.3,-12.55,-44.53,-44.73,0,*67
1484132803.69,22061,5.31,72470.5,-12.55,-44.53,-44.79,0,*6C
1484132804.94,22062,5.38,72474.5,-12.55,-44.53,-44.73,0,*65
1484132806.18,22063,5.31,72468.8,-12.55,-44.33,-44.61,0,*61
1484132807.42,22064,5.38,72472.0,-12.53,-44.41,-44.61,0,*65
1484132808.69,22065,5.38,72472.0,-12.53,-44.33,-44.61,0,*61
1484132809.9,22066,5.38,72476.3,-12.55,-44.53,-44.79,0,*6B
1484132811.17,22067,5.31,72470.8,-12.53,-44.33,-44.53,0,*62
1484132812.44,22068,5.31,72470.3,-12.53,-44.21,-44.53,0,*6E
1484132813.71,22069,5.38,72472.5,-12.53,-44.21,-44.61,0,*6E
1484132814.98,22070,5.31,72468.5,-12.53,-44.21,-44.61,0,*66
1484132816.27,22071,5.31,72468.8,-12.49,-44.47,-44.73,0,*6F
1484132817.56,22072,5.38,72472.8,-12.49,-44.47,-44.67,0,*69
1484132818.82,22073,5.38,72472.8,-12.49,-44.13,-44.27,0,*6D
1484132820.09,22074,5.31,72470.0,-12.49,-43.81,-43.95,0,*68
1484132821.33,22075,5.31,72468.0,-12.49,-43.95,-44.27,0,*62
1484132822.57,22076,5.31,72470.8,-12.51,-44.33,-44.53,0,*60
1484132823.86,22077,5.31,72466.0,-12.49,-44.47,-44.73,0,*69
1484132825.12,22078,5.38,72470.8,-12.51,-44.47,-44.67,0,*6A
1484132826.39,22079,5.31,72470.0,-12.49,-44.53,-44.73,0,*62
1484132827.65,22080,5.38,72470.0,-12.49,-44.67,-44.87,0,*68
1484132828.94,22081,5.38,72470.8,-12.49,-44.33,-44.67,0,*66
1484132830.23,22082,5.38,72472.3,-12.49,-44.47,-44.73,0,*63
1484132831.51,22083,5.31,72468.3,-12.45,-44.47,-44.67,0,*6B
1484132832.78,22084,5.38,72468.3,-12.45,-44.47,-44.79,0,*63
1484132834.02,22085,5.38,72468.5,-12.45,-44.61,-44.79,0,*66
1484132835.26,22086,5.38,72472.0,-12.45,-44.61,-44.79,0,*65
1484132836.52,22087,5.38,72470.8,-12.45,-44.41,-44.73,0,*6C
1484132837.81,22088,5.31,72468.8,-12.45,-44.47,-44.67,0,*60
1484132839.08,22089,5.31,72468.0,-12.45,-44.67,-44.87,0,*6D
1484132840.32,22090,5.38,72470.3,-12.45,-44.61,-44.79,0,*62
1484132841.57,22091,5.38,72472.5,-12.45,-44.79,-44.79,0,*6A
1484132842.83,22092,5.38,72472.8,-12.45,-44.67,-44.79,0,*66
1484132844.1,22093,5.31,72470.8,-12.45,-44.67,-44.79,0,*67
1484132845.34,22094,5.38,72474.5,-12.45,-44.27,-44.61,0,*6D
1484132846.63,22095,5.38,72472.8,-12.45,-44.21,-44.47,0,*6E
1484132847.89,22096,5.38,72470.3,-12.45,-44.13,-44.41,0,*6A
1484132849.15,22097,5.38,72470.5,-12.45,-44.07,-44.47,0,*68
1484132850.42,22098,5.38,72470.5,-12.45,-44.21,-44.41,0,*65
1484132851.66,22099,5.38,72468.5,-12.45,-44.41,-44.61,0,*60
1484132852.9,22100,5.38,72468.3,-12.45,-44.41,-44.61,0,*61
1484132854.16,22101,5.31,72466.0,-12.45,-44.33,-44.61,0,*65
1484132855.43,22102,5.31,72466.3,-12.45,-44.21,-44.61,0,*65
1484132856.66,22103,5.31,72466.5,-12.43,-44.33,-44.61,0,*61
1484132857.9,22104,5.38,72468.0,-12.41,-44.61,-44.61,0,*63
1484132859.11,22105,5.31,72466.8,-12.43,-44.53,-44.79,0,*68
1484132860.35,22106,5.31,72466.0,-12.43,-44.61,-44.73,0,*60
1484132861.59,22107,5.38,72468.5,-12.43,-44.41,-44.73,0,*63
1484132862.83,22108,5.38,72466.5,-12.43,-44.61,-44.73,0,*6E
1484132864.1,22109,5.38,72468.3,-12.43,-44.73,-44.93,0,*62
1484132865.33,22110,5.38,72470.5,-12.43,-44.79,-44.99,0,*6A
1484132866.54,22111,5.38,72470.0,-12.43,-44.61,-44.79,0,*6C
1484132867.75,22112,5.38,72466.5,-12.43,-44.61,-44.79,0,*6F
1484132868.97,22113,5.38,72468.5,-12.43,-44.61,-44.79,0,*6E
1484132870.21,22114,5.38,72464.0,-12.43,-44.41,-44.73,0,*61
1484132871.45,22115,5.31,72466.5,-12.43,-44.61,-44.73,0,*62
1484132872.68,22116,5.31,72466.0,-12.41,-44.61,-44.79,0,*69
1484132873.92,22117,5.38,72466.0,-12.41,-44.61,-44.79,0,*68
1484132875.18,22118,5.38,72464.0,-12.41,-44.73,-44.99,0,*6A
1484132876.42,22119,5.38,72466.5,-12.43,-44.73,-44.79,0,*67
1484132877.63,22120,5.38,72468.0,-12.43,-44.61,-44.99,0,*60
1484132878.9,22121,5.38,72468.0,-12.43,-44.73,-44.93,0,*68
1484132880.18,22122,5.31,72464.5,-12.43,-44.73,-44.93,0,*6B
1484132881.42,22123,5.38,72466.8,-12.43,-44.61,-44.93,0,*69
1484132882.69,22124,5.38,72468.0,-12.43,-44.73,-44.93,0,*6D
1484132883.93,22125,5.38,72468.0,-12.43,-44.53,-44.73,0,*60
1484132885.17,22126,5.31,72466.5,-12.43,-44.41,-44.73,0,*60
1484132886.38,22127,5.31,72466.3,-12.43,-44.41,-44.61,0,*62
1484132887.62,22128,5.31,72466.3,-12.43,-44.53,-44.73,0,*6D
1484132888.88,22129,5.38,72466.0,-12.41,-44.73,-44.79,0,*66
1484132890.13,22130,5.38,72466.5,-12.43,-44.53,-44.73,0,*64
1484132891.34,22131,5.38,72464.5,-12.43,-44.41,-44.79,0,*6C
1484132892.6,22132,5.38,72464.3,-12.41,-44.53,-44.73,0,*64
1484132893.81,22133,5.38,72466.3,-12.43,-44.53,-44.79,0,*6D
1484132895.08,22134,5.38,72466.8,-12.41,-44.73,-44.79,0,*6A
1484132896.32,22135,5.38,72470.3,-12.43,-44.61,-44.73,0,*60
1484132897.55,22136,5.38,72464.3,-12.43,-44.41,-44.73,0,*61
1484132898.84,22137,5.38,72468.3,-12.41,-44.33,-44.73,0,*67
1484132900.12,22138,5.38,72466.8,-12.41,-44.33,-44.73,0,*68